K5JLG-10 Weather Reports


Display with metric or nautical units.
time (UTC)temp
F
wind
direction
speed
MPH
gust
MPH
rain 1hr
in
rain 24hr
in
rain mn
in
humidity
%
barometer
mb
20260509101135 70 0.0 0.0 0.00 0.51 0.00 92 1008.5
20260509100115 70 0.0 0.0 0.00 0.51 0.00 91 1008.6
20260509095158 71 0.0 0.0 0.00 0.68 0.00 91 1008.4
20260509094116 71 0.0 0.0 0.00 0.69 0.00 90 1008.1
20260509093115 72 0.0 0.0 0.00 0.69 0.00 90 1008.1
20260509092115 72 180 2.0 4.0 0.00 0.69 0.00 90 1007.7
20260509091115 72 135 1.0 2.0 0.00 0.69 0.00 90 1008.2
20260509090136 72 270 1.0 4.0 0.00 0.69 0.00 90 1008.4
20260509085115 72 203 2.0 4.0 0.00 0.69 0.00 90 1007.3
20260509084156 72 203 4.0 9.0 0.00 0.69 0.00 90 1006.6
20260509083115 72 180 6.0 9.0 0.00 0.70 0.00 90 1006.1
20260509082117 72 158 5.0 7.0 0.00 0.70 0.00 90 1006.6
20260509081118 72 180 7.0 14.0 0.00 0.70 0.00 89 1007.3
20260509080115 72 203 6.0 9.0 0.00 0.70 0.00 90 1007.8
20260509075117 72 180 5.0 8.0 0.00 0.70 0.00 90 1008.5
20260509074115 72 203 3.0 6.0 0.00 0.70 0.00 89 1009.3
20260509073117 71 158 3.0 5.0 0.00 0.74 0.00 90 1009.3
20260509072117 71 203 3.0 4.0 0.00 0.76 0.00 90 1009.6
20260509071117 71 203 1.0 3.0 0.00 0.78 0.00 91 1010.1
20260509070117 71 180 2.0 4.0 0.00 0.78 0.00 91 1010.2
20260509065118 71 180 2.0 3.0 0.00 0.78 0.00 91 1010.5
20260509064117 70 0.0 1.0 0.00 0.78 0.00 91 1010.6
20260509063117 70 0.0 0.0 0.00 0.78 0.00 91 1010.5
20260509062117 71 180 1.0 2.0 0.00 0.78 0.00 89 1010.5
20260509061117 71 0.0 2.0 0.00 0.78 0.00 89 1010.3
20260509060118 71 180 1.0 2.0 0.00 0.78 0.00 89 1010.4
20260509055117 71 180 3.0 4.0 0.00 0.78 0.00 88 1010.4
20260509054117 71 180 1.0 2.0 0.00 0.78 0.00 88 1010.9
20260509053117 71 0.0 0.0 0.00 0.78 0.00 87 1011.2
20260509052117 72 0.0 0.0 0.00 0.78 0.00 87 1011.3
20260509051117 72 315 1.0 3.0 0.00 0.78 0.00 87 1011.5
20260509050117 72 338 3.0 6.0 0.00 0.78 0.00 86 1011.5
20260509045117 72 0.0 0.0 0.00 0.78 0.78 85 1010.3
20260509044117 73 158 2.0 5.0 0.00 0.78 0.78 85 1010.2
20260509043117 73 0.0 0.0 0.00 0.78 0.78 85 1010.4
20260509042118 73 0.0 1.0 0.00 0.78 0.78 84 1010.3
20260509041117 73 135 2.0 4.0 0.00 0.78 0.78 83 1010.0
20260509040117 73 158 3.0 5.0 0.00 0.78 0.78 83 1009.9
20260509035117 74 180 2.0 3.0 0.00 0.78 0.78 83 1009.4
20260509034117 73 158 1.0 3.0 0.00 0.78 0.78 83 1009.9
20260509033117 73 0.0 0.0 0.00 0.78 0.78 83 1010.6
20260509032137 73 0.0 2.0 0.00 0.78 0.78 83 1010.5
20260509031138 73 68 2.0 3.0 0.00 0.78 0.78 83 1010.1
20260509030117 73 0.0 1.0 0.00 0.78 0.78 82 1009.7
20260509025117 73 0.0 1.0 0.00 0.78 0.78 82 1009.2
20260509024117 74 0.0 0.0 0.00 0.78 0.78 82 1009.1
20260509023117 74 158 3.0 5.0 0.00 0.78 0.78 82 1008.7
20260509022117 74 158 6.0 9.0 0.00 0.78 0.78 82 1008.3
20260509021116 74 158 6.0 8.0 0.00 0.78 0.78 81 1008.3
20260509020118 74 225 2.0 4.0 0.00 0.78 0.78 81 1008.5
20260509015117 74 180 4.0 7.0 0.00 0.78 0.78 81 1008.2
20260509014117 74 180 3.0 5.0 0.00 0.78 0.78 81 1008.2
20260509013117 74 180 4.0 7.0 0.00 0.78 0.78 80 1008.5
20260509012117 74 180 3.0 5.0 0.00 0.78 0.78 80 1008.5
20260509011116 74 158 1.0 3.0 0.00 0.78 0.78 80 1008.5
20260509010117 74 180 2.0 3.0 0.00 0.78 0.78 80 1008.3
20260509005117 74 180 3.0 4.0 0.00 0.78 0.78 79 1008.2
20260509004138 75 180 4.0 7.0 0.00 0.78 0.78 78 1008.1
20260509003117 75 180 4.0 7.0 0.00 0.78 0.78 78 1007.9
20260509002116 76 203 1.0 3.0 0.00 0.78 0.78 77 1007.9
20260509001137 76 180 6.0 9.0 0.00 0.78 0.78 76 1007.7
20260509000137 76 180 8.0 10.0 0.00 0.78 0.78 75 1007.9
20260508235136 76 180 4.0 7.0 0.00 0.78 0.78 76 1008.0
20260508234126 76 180 6.0 11.0 0.00 0.78 0.78 75 1008.2
20260508233317 76 180 7.0 11.0 0.00 0.78 0.78 75 1008.3
20260508232317 76 203 5.0 8.0 0.00 0.78 0.78 74 1008.4
20260508231316 77 158 6.0 9.0 0.00 0.78 0.78 73 1008.4
20260508230316 77 158 5.0 7.0 0.00 0.78 0.78 72 1008.4
20260508225317 78 180 6.0 9.0 0.00 0.78 0.78 70 1008.5
20260508224316 77 158 2.0 4.0 0.00 0.78 0.78 71 1008.4
20260508223337 78 158 3.0 5.0 0.00 0.78 0.78 69 1008.6
20260508222316 78 158 5.0 9.0 0.00 0.78 0.78 69 1008.6
20260508221317 79 225 4.0 8.0 0.00 0.78 0.78 68 1008.6
20260508220338 78 203 3.0 6.0 0.00 0.78 0.78 68 1008.5
20260508215316 78 158 4.0 7.0 0.00 0.78 0.78 69 1008.5
20260508214316 77 180 9.0 12.0 0.00 0.78 0.78 69 1008.6
20260508213317 77 180 6.0 12.0 0.00 0.78 0.78 69 1008.7
20260508212316 76 180 5.0 9.0 0.00 0.78 0.78 70 1008.9
20260508211316 77 113 2.0 5.0 0.00 0.78 0.78 71 1009.0
20260508210316 76 180 5.0 7.0 0.00 0.78 0.78 70 1008.8
20260508205317 77 158 4.0 7.0 0.00 0.78 0.78 70 1008.9
20260508204317 76 180 2.0 6.0 0.00 0.78 0.78 72 1009.5
20260508203316 74 158 3.0 6.0 0.00 0.78 0.78 72 1010.1
20260508202316 75 158 4.0 6.0 0.00 0.78 0.78 71 1010.8
20260508201316 75 203 2.0 4.0 0.00 0.78 0.78 70 1010.7
20260508200316 76 180 4.0 6.0 0.00 0.78 0.78 71 1010.7
20260508195317 76 158 4.0 6.0 0.00 0.78 0.78 71 1010.7
20260508194316 76 180 5.0 9.0 0.00 0.78 0.78 71 1010.7
20260508193316 76 158 4.0 6.0 0.00 0.78 0.78 72 1010.7
20260508192316 76 158 3.0 4.0 0.00 0.78 0.78 72 1011.0
20260508191316 76 180 7.0 9.0 0.00 0.78 0.78 71 1011.0
20260508190316 77 180 4.0 6.0 0.00 0.78 0.78 71 1011.0
20260508185317 78 203 3.0 5.0 0.00 0.78 0.78 68 1011.0
20260508184316 79 158 3.0 6.0 0.00 0.78 0.78 68 1011.1
20260508183317 78 158 1.0 2.0 0.00 0.78 0.78 68 1011.2
20260508182336 79 135 3.0 5.0 0.00 0.78 0.78 66 1011.3
20260508181316 78 180 1.0 5.0 0.00 0.78 0.78 67 1011.7
20260508180316 78 158 3.0 4.0 0.00 0.78 0.78 66 1011.9
20260508175316 78 158 3.0 5.0 0.00 0.78 0.78 67 1012.1
20260508174316 78 180 8.0 10.0 0.00 0.78 0.78 65 1012.2
20260508173336 76 203 4.0 7.0 0.00 0.78 0.78 66 1012.3
20260508172316 76 158 3.0 4.0 0.00 0.78 0.78 67 1012.4
20260508171316 75 135 2.0 3.0 0.00 0.78 0.78 68 1012.4
20260508170317 75 158 4.0 6.0 0.00 0.78 0.78 69 1012.7
20260508165316 73 180 3.0 5.0 0.00 0.78 0.78 69 1013.1
20260508164317 73 180 3.0 6.0 0.00 0.78 0.78 69 1013.3
20260508163336 72 158 2.0 4.0 0.00 0.78 0.78 70 1013.5
20260508162316 72 158 5.0 10.0 0.00 0.78 0.78 69 1013.7
20260508161316 71 158 1.0 2.0 0.00 0.78 0.78 73 1013.8
20260508160317 70 225 4.0 6.0 0.00 0.78 0.78 72 1013.8
20260508155316 69 158 3.0 5.0 0.00 0.78 0.78 75 1014.1
20260508154316 69 180 4.0 6.0 0.00 0.78 0.78 74 1014.0
20260508153317 69 180 4.0 7.0 0.00 0.78 0.78 76 1014.1
20260508152316 68 180 4.0 6.0 0.00 0.78 0.78 80 1014.1
20260508151316 66 180 4.0 5.0 0.00 0.78 0.78 90 1014.4
20260508150316 64 158 3.0 5.0 0.00 0.78 0.78 97 1014.5
20260508145316 63 203 3.0 5.0 0.00 0.78 0.78 97 1014.3
20260508144316 62 180 2.0 5.0 0.00 0.78 0.78 97 1014.3
20260508143315 62 180 2.0 4.0 0.00 0.78 0.78 98 1014.6
20260508142316 61 158 1.0 2.0 0.00 0.78 0.78 98 1014.6
20260508141316 61 158 4.0 6.0 0.00 0.78 0.78 98 1014.6
20260508140316 61 158 5.0 7.0 0.00 0.78 0.78 98 1014.6
20260508135316 61 158 2.0 4.0 0.00 0.78 0.78 98 1014.6
20260508134315 61 0.0 1.0 0.00 0.78 0.78 98 1014.7
20260508133316 61 158 3.0 4.0 0.01 0.78 0.78 98 1014.4
20260508132315 61 135 2.0 5.0 0.02 0.78 0.78 98 1014.5
20260508131316 61 158 1.0 2.0 0.13 0.78 0.78 98 1014.4
20260508130316 61 0.0 0.0 0.14 0.78 0.78 98 1014.6
20260508125336 61 0.0 0.0 0.14 0.78 0.78 98 1014.9
20260508124315 61 0.0 0.0 0.14 0.78 0.78 98 1014.7
20260508123316 60 0.0 1.0 0.13 0.77 0.77 98 1014.7
20260508122316 60 68 1.0 1.0 0.12 0.76 0.76 98 1014.8
20260508121335 60 0.0 1.0 0.01 0.65 0.65 98 1015.3
20260508120315 60 180 2.0 5.0 0.00 0.64 0.64 98 1014.7
20260508115336 60 180 2.0 4.0 0.00 0.64 0.64 98 1014.7
20260508114316 61 158 2.0 4.0 0.18 0.64 0.64 98 1014.8
20260508113316 60 158 1.0 2.0 0.37 0.64 0.64 98 1014.8
20260508112315 60 0.0 0.0 0.37 0.64 0.64 98 1014.7
20260508111315 60 0.0 0.0 0.37 0.64 0.64 98 1014.4
20260508110315 60 180 2.0 3.0 0.37 0.64 0.64 98 1014.4
20260508105315 61 0.0 0.0 0.44 0.64 0.64 97 1014.4
20260508104417 61 0.0 1.0 0.37 0.46 0.46 97 1014.7
20260508103316 61 0.0 1.0 0.18 0.27 0.27 97 1015.6
20260508102336 61 0.0 0.0 0.18 0.27 0.27 97 1014.5